NOAA 7

operational
NORAD ID: 12553 Int'l Des: 1981-059 Owner: NOAA Country: US
LEOCIRCULARRETROGRADESSO

NOAA 7について

説明を読み込み中...

リアルタイム位置

3D地球を読み込み中...

次回通過

高度履歴

Altitude vs Time

uPlot chart will show altitude changes over time

軌道要素

1 12553U 81059A 25278.46967212 .00000120 00000-0 80954-4 0 9993
2 12553 98.8318 342.6185 0010366 277.4744 82.5253 14.17731282288655
Epoch: Oct 5, 2025 • Age: 18 hours

現在のステータス

高度 839.0 km
速度 7.43 km/s
衛星直下点 21.13°N, 77.31°E
打ち上げ日 Jun 23, 1981
運用期間 44.2 years
タイプ weather

技術仕様

分類 Payload
質量 685.00 kg
乾燥質量 685.00 kg
総質量 1418.00 kg
長さ 3.70 m
直径 1.90 m
スパン 4.90 m
形状 Box + Pan
製造者 RCA
バスタイプ Tiros N
フェーズステータス In Orbit
所有者/国 NOAA/US

大規模コンステレーション

Loading constellations...